[[{"header":{"parameterUnit":"m.s-1","parameterCategory":1,"la1":30.2992,"la2":30.254,"lo1":-89.0895,"lo2":-89.0443,"dy":0.0025,"dx":0.0025,"nx":19,"ny":19,"refTime":"2026-04-24T03:00:00:Z","depth":0,"parameterNumber":2,"parameterNumberName":"U-component_of_WINDS"},"data":[0,0,0,-0.681,-0.6812,-0.6917,-0.6917,-0.7046,-0.7047,0,0,0,0,0,0,0,0,0,0,0,-0.6771,-0.6772,-0.6809,-0.6812,-0.6917,-0.6917,-0.7046,-0.7047,0,0,0,0,0,0,0,0,0,0,0,-0.6771,-0.6771,-0.6772,-0.6812,-0.6917,-0.6917,-0.7045,-0.6969,0,0,0,0,0,0,0,0,0,0,-0.6869,-0.6825,-0.6771,-0.6772,-0.6813,-0.6916,-0.6917,-0.6966,-0.6974,-0.6995,0,-0.7007,0,-0.7029,-0.7055,-0.7055,0,0,0,-0.6819,-0.6818,-0.6852,-0.6772,-0.6814,-0.6916,-0.6871,-0.697,-0.698,-0.7005,-0.7009,-0.7014,-0.7031,-0.7056,-0.7056,-0.7144,-0.7144,0,0,-0.6813,-0.6787,-0.6846,-0.6858,-0.6837,-0.6868,-0.6874,-0.6976,-0.698,-0.701,-0.7018,-0.7033,-0.7056,-0.7057,-0.7144,-0.7144,0,0,0,-0.6792,-0.6783,-0.6815,-0.6852,-0.6871,-0.6871,-0.6878,-0.6976,-0.6988,-0.7019,-0.7035,-0.7057,-0.7058,-0.7144,-0.7144,-0.7122,0,0,0,-0.6788,-0.677,-0.6812,-0.6797,-0.6869,-0.6924,-0.6875,-0.6981,-0.6993,-0.7034,-0.7057,-0.706,-0.7144,-0.7144,-0.7122,-0.7116,0,0,0,-0.6767,-0.6768,-0.678,-0.6796,-0.6839,-0.6923,-0.6942,-0.6984,-0.7003,-0.7055,-0.706,-0.7144,-0.7144,-0.7123,-0.7117,-0.7131,0,0,0,-0.6738,-0.6761,-0.6779,-0.6812,-0.6838,-0.6907,-0.6941,-0.6995,-0.7037,-0.7058,-0.7144,-0.7144,-0.7123,-0.7117,-0.7131,-0.7138,-0.7138,0,0,-0.6753,-0.6762,-0.6783,-0.6803,-0.6861,-0.6893,-0.6951,-0.7016,-0.7047,-0.7111,-0.7113,-0.7122,-0.7117,-0.7131,-0.7149,-0.7149,0,0,0,-0.6779,-0.6794,-0.6815,-0.6852,-0.6901,-0.6943,-0.7001,-0.7026,-0.7081,-0.7073,-0.7132,-0.713,-0.714,-0.7144,-0.7144,-0.7155,-0.7145,-0.7145,-0.7145,-0.6764,-0.6799,-0.6837,-0.6885,-0.6922,-0.6981,-0.7015,-0.7059,-0.7087,-0.71,-0.7119,-0.7125,-0.7129,-0.713,-0.714,-0.7126,-0.7126,-0.7126,-0.7126,-0.679,-0.6817,-0.685,-0.6899,-0.6937,-0.698,-0.704,-0.7058,-0.7106,-0.7114,-0.7124,-0.713,-0.7128,-0.7139,-0.7125,-0.7125,-0.7125,-0.7125,-0.7125,-0.6784,-0.6803,-0.683,-0.6887,-0.6929,-0.6979,-0.7022,-0.7057,-0.709,-0.7101,-0.7125,-0.7125,-0.713,-0.711,-0.711,-0.711,-0.711,-0.711,-0.711,-0.6767,-0.6798,-0.6828,-0.688,-0.6909,-0.6952,-0.7013,-0.7044,-0.7087,-0.711,-0.711,-0.7136,-0.7121,-0.7116,-0.711,-0.711,-0.711,-0.711,-0.711,-0.6779,-0.6781,-0.6827,-0.6856,-0.6921,-0.6961,-0.7004,-0.7064,-0.7095,-0.7116,-0.714,-0.7123,-0.7136,-0.7136,-0.7132,-0.7131,-0.7131,-0.7131,-0.7131,-0.6774,-0.6783,-0.6838,-0.6881,-0.6928,-0.6971,-0.7026,-0.7075,-0.7127,-0.7149,-0.7155,-0.7153,-0.7152,-0.7166,-0.7165,-0.7162,-0.7169,-0.7169,-0.7169,-0.6784,-0.6799,-0.6836,-0.6883,-0.6937,-0.6984,-0.7037,-0.7088,-0.7148,-0.7171,-0.7167,-0.7166,-0.7163,-0.7161,-0.7183,-0.7182,-0.7177,0,0]},{"header":{"parameterUnit":"m.s-1","parameterCategory":1,"la1":30.2992,"la2":30.254,"lo1":-89.0895,"lo2":-89.0443,"dy":0.0025,"dx":0.0025,"nx":19,"ny":19,"refTime":"2026-04-24T03:00:00:Z","depth":0,"parameterNumber":3,"parameterNumberName":"V-component_of_WINDS"},"data":[0,0,0,4.2358,4.2359,4.2403,4.2403,4.2465,4.2466,0,0,0,0,0,0,0,0,0,0,0,4.235,4.2351,4.2358,4.2359,4.2403,4.2403,4.2465,4.2466,0,0,0,0,0,0,0,0,0,0,0,4.235,4.2351,4.2351,4.2359,4.2403,4.2403,4.2465,4.2429,0,0,0,0,0,0,0,0,0,0,4.2386,4.2384,4.235,4.2351,4.236,4.2403,4.2403,4.2427,4.2431,4.2448,0,4.2466,0,4.2467,4.247,4.2471,0,0,0,4.2355,4.238,4.2388,4.2352,4.236,4.2403,4.2382,4.243,4.2434,4.2454,4.2467,4.2469,4.2468,4.2471,4.2471,4.2584,4.2585,0,0,4.2353,4.2361,4.2385,4.2391,4.2386,4.2381,4.2383,4.2432,4.2446,4.2467,4.247,4.2469,4.2471,4.2472,4.2584,4.2585,0,0,0,4.2348,4.2359,4.2365,4.2389,4.2396,4.2382,4.2385,4.2444,4.2445,4.2471,4.247,4.2472,4.2473,4.2583,4.2584,4.2628,0,0,0,4.2347,4.2357,4.2364,4.2369,4.2395,4.2421,4.2396,4.2442,4.2447,4.2469,4.2472,4.2473,4.2582,4.2584,4.2625,4.2647,0,0,0,4.2345,4.2356,4.2365,4.237,4.2389,4.242,4.2424,4.2443,4.2447,4.2471,4.2473,4.2582,4.2583,4.2622,4.2642,4.2679,0,0,0,4.2346,4.2403,4.2365,4.2428,4.2389,4.2447,4.2424,4.2467,4.2492,4.2472,4.2582,4.2584,4.2621,4.264,4.2676,4.271,4.2725,0,0,4.2422,4.2412,4.2448,4.2416,4.2483,4.244,4.2513,4.2528,4.2523,4.2564,4.2566,4.2626,4.2642,4.2678,4.2809,4.2821,0,0,0,4.2475,4.2501,4.2517,4.2542,4.2555,4.2568,4.2572,4.2577,4.2612,4.2546,4.2648,4.2658,4.2679,4.2695,4.2705,4.2722,4.2592,4.2592,4.2592,4.2593,4.2583,4.2642,4.2637,4.2662,4.2665,4.2683,4.2691,4.2674,4.2698,4.271,4.2791,4.281,4.2817,4.2835,4.2728,4.2728,4.2728,4.2728,4.2702,4.2737,4.2713,4.2761,4.275,4.279,4.2795,4.2781,4.2816,4.2781,4.2798,4.2761,4.2831,4.2846,4.2731,4.2731,4.273,4.273,4.273,4.2778,4.2794,4.28,4.2834,4.2862,4.2855,4.2889,4.2878,4.2867,4.2885,4.2896,4.2895,4.2892,4.2891,4.2891,4.2891,4.2891,4.2892,4.2892,4.2855,4.2861,4.2892,4.291,4.2924,4.2941,4.2944,4.2957,4.2969,4.2957,4.2957,4.2937,4.284,4.2816,4.2896,4.2895,4.2895,4.2894,4.2894,4.297,4.2942,4.299,4.3004,4.3024,4.3052,4.3036,4.3064,4.3073,4.309,4.3066,4.2996,4.2985,4.2977,4.2956,4.3069,4.3069,4.3069,4.3069,4.3034,4.3027,4.3073,4.3096,4.3117,4.3108,4.3161,4.3163,4.3161,4.3166,4.3148,4.312,4.3112,4.3106,4.3095,4.3075,4.3215,4.3215,4.3215,4.3103,4.3098,4.3146,4.3144,4.3159,4.3171,4.322,4.3247,4.3238,4.3221,4.3169,4.3163,4.3118,4.3104,4.3085,4.3068,4.3033,0,0]}]]